[[{"header":{"parameterUnit":"m.s-1","parameterCategory":1,"la1":30.2991,"la2":30.254,"lo1":-89.0895,"lo2":-89.0444,"dy":0.0017,"dx":0.0017,"nx":28,"ny":28,"refTime":"2025-11-22T09:00:00:Z","depth":0,"parameterNumber":2,"parameterNumberName":"U-component_of_WINDS"},"data":[0,0,0,0,0,0,0,0,0,0,0,0,0,0,0,0,0,0,0,0,0,0,0,0,0,0,0,0,0,0,0,0,0,0,0,0,0,0,0,0,0,0,0,0,0,0,0,0,0,0,0,0,0,0,0,0,0,0,2.1164,2.1165,0,2.1276,2.1278,2.1279,2.1281,2.1279,2.1278,2.1276,2.1394,2.1398,2.1403,0,0,0,0,0,0,0,0,0,0,0,0,0,2.0955,2.0959,2.1164,2.1165,2.1167,2.1276,2.1278,2.1279,2.1281,2.1279,2.1277,2.1276,2.1393,2.1398,2.1403,0,0,0,0,0,0,0,0,0,0,0,0,0,2.1054,2.096,2.1164,2.1181,2.1183,2.1276,2.1278,2.128,2.1281,2.1279,2.1277,2.1275,2.1391,2.1397,2.1404,2.1488,0,0,2.1424,2.1427,0,0,0,0,0,0,0,0,2.1049,2.1062,2.1177,2.118,2.1183,2.1262,2.1247,2.1349,2.1282,2.1244,2.1276,2.1274,2.1352,2.1362,2.1388,2.1493,2.1498,2.1425,2.1429,2.1432,2.1434,0,0,0,0,0,0,0,2.1042,2.1057,2.1208,2.1179,2.1182,2.1184,2.1196,2.1266,2.1309,2.1247,2.1248,2.1261,2.1353,2.1381,2.139,2.15,2.1425,2.1431,2.1435,2.1437,2.1681,2.1684,0,0,0,0,0,0,2.1031,2.1051,2.1205,2.1212,2.1109,2.119,2.1203,2.1239,2.1308,2.1316,2.1263,2.1261,2.1371,2.1383,2.1395,2.1498,2.1432,2.1438,2.1442,2.1679,2.1682,2.1685,0,0,0,0,0,0,2.1027,2.1045,2.12,2.1132,2.1152,2.1195,2.1236,2.1242,2.127,2.1319,2.1327,2.1283,2.137,2.1385,2.1465,2.1502,2.1441,2.1447,2.1676,2.168,2.1683,2.1704,0,0,0,0,0,0,2.102,2.1043,2.1074,2.1132,2.1155,2.1267,2.1238,2.1246,2.1281,2.128,2.1341,2.1349,2.1369,2.1455,2.1471,2.151,2.1452,2.1673,2.1678,2.1682,2.17,2.1708,2.1714,0,0,0,0,0,2.1013,2.1076,2.1076,2.1094,2.1195,2.1269,2.1283,2.1304,2.1284,2.1317,2.1349,2.1347,2.1495,2.1463,2.1481,2.1523,2.1671,2.1676,2.1682,2.1697,2.1706,2.1714,0,0,0,0,0,0,2.1021,2.1084,2.1084,2.1168,2.1213,2.127,2.1311,2.1313,2.1366,2.1362,2.1388,2.1402,2.1481,2.151,2.1473,2.1608,2.1581,2.159,2.1586,2.1595,2.1602,2.1593,2.1458,0,0,0,0,0,2.1033,2.1087,2.1139,2.1208,2.1231,2.1267,2.13,2.1313,2.1361,2.1381,2.1419,2.1467,2.1524,2.1561,2.1617,2.1705,2.1719,2.1742,2.175,2.1755,2.1763,2.1813,2.1824,2.1703,2.1703,2.1703,0,0,2.1057,2.1098,2.1131,2.121,2.1247,2.1304,2.1283,2.1344,2.1386,2.139,2.1467,2.1497,2.1552,2.1637,2.1676,2.1663,2.18,2.1762,2.1767,2.1771,2.1819,2.1831,2.1841,2.1707,2.1706,2.1705,0,0,2.113,2.1166,2.1228,2.1265,2.1321,2.1345,2.136,2.1417,2.1436,2.1514,2.1519,2.157,2.1669,2.1708,2.1741,2.1831,2.1832,2.1849,2.1886,2.1934,2.1944,2.1952,2.1985,2.1996,2.1857,2.1857,2.1857,0,2.1153,2.1238,2.1259,2.132,2.1356,2.1362,2.1425,2.1461,2.1532,2.1557,2.1542,2.1667,2.1704,2.1798,2.182,2.1847,2.1865,2.1842,2.1941,2.1949,2.1958,2.1989,2.2001,2.1859,2.1858,2.1858,2.1858,0,2.1264,2.1323,2.1366,2.1434,2.1475,2.1537,2.1569,2.1607,2.1617,2.1643,2.1723,2.1769,2.1834,2.1858,2.1868,2.1954,2.1945,2.1935,2.1908,2.1971,2.2,2.2013,2.1861,2.186,2.186,2.1859,0,0,2.1344,2.1424,2.144,2.1471,2.1534,2.1581,2.1644,2.1707,2.174,2.179,2.1844,2.1928,2.192,2.1957,2.1972,2.2014,2.2084,2.2,2.2002,2.2014,2.2182,2.2188,2.2201,2.2085,2.2087,2.2089,2.2177,0,2.1424,2.1534,2.1556,2.1652,2.1708,2.1715,2.177,2.1816,2.1842,2.1894,2.1924,2.1983,2.1968,2.1991,2.2033,2.2066,2.2117,2.206,2.2136,2.2138,2.2121,2.2217,2.2223,2.2304,2.2189,2.2191,2.2192,0,2.1531,2.1583,2.1684,2.1741,2.1765,2.1814,2.1874,2.1924,2.1976,2.1993,2.2035,2.2046,2.2113,2.2084,2.2177,2.2138,2.217,2.2192,2.2195,2.2202,2.2168,2.2226,2.233,2.2342,2.2211,2.2209,2.2208,0,2.1579,2.1674,2.1748,2.1775,2.1843,2.1877,2.1907,2.1957,2.1994,2.2048,2.2073,2.2134,2.2167,2.2215,2.2242,2.2218,2.2334,2.2306,2.235,2.2349,2.2373,2.2371,2.2483,2.2395,2.2395,2.2395,2.2394,0,2.1665,2.1727,2.177,2.1815,2.1886,2.1911,2.1981,2.2011,2.2056,2.2108,2.2119,2.2168,2.2201,2.2255,2.2278,2.2352,2.2367,2.2383,2.2388,2.2382,2.2379,2.2403,2.2397,2.2398,2.2397,2.2397,2.2396,0,2.173,2.1761,2.1842,2.19,2.1916,2.1965,2.2016,2.2061,2.2088,2.2154,2.2171,2.2214,2.2278,2.2311,2.2391,2.2406,2.249,2.2492,2.2472,2.2474,2.2515,2.2511,2.2645,2.2664,2.2564,2.2565,2.2566,0,2.1782,2.183,2.1893,2.1929,2.1959,2.2016,2.2054,2.2082,2.2122,2.2186,2.2223,2.2288,2.2341,2.2444,2.2483,2.2545,2.2548,2.2591,2.2558,2.255,2.2549,2.2545,2.255,2.2597,2.2598,2.2599,2.2599,0,2.1872,2.1886,2.1939,2.1999,2.2044,2.2093,2.2141,2.217,2.2206,2.225,2.2316,2.2357,2.2439,2.2504,2.2569,2.2601,2.2607,2.261,2.2623,2.2617,2.2603,2.2611,2.2488,2.2606,2.2606,2.2605,2.2605,2.2604,2.1932,2.1975,2.2027,2.2087,2.2126,2.2171,2.2216,2.225,2.2304,2.2373,2.2387,2.2456,2.2509,2.2597,2.2632,2.2688,2.2678,2.2698,2.2702,2.2707,2.2708,2.2595,2.27,2.27,2.2699,2.2699,2.2699,0,2.2022,2.2056,2.2111,2.2178,2.2226,2.2227,2.2281,2.2321,2.2382,2.243,2.2482,2.2559,2.2622,2.2666,2.2731,2.2767,2.2771,2.2783,2.278,2.2788,2.2713,2.2695,2.2778,2.2778,2.2778,2.2778,2.2778,2.2778,2.2074,2.2148,2.2168,2.2261,2.2295,2.2363,2.2393,2.2436,2.2475,2.2559,2.2611,2.264,2.2687,2.2756,2.2814,2.2826,2.2849,2.286,2.2872,2.2801,2.2793,2.2785,2.2768,2.2865,2.2865,2.2942,2.2942,2.2943]},{"header":{"parameterUnit":"m.s-1","parameterCategory":1,"la1":30.2991,"la2":30.254,"lo1":-89.0895,"lo2":-89.0444,"dy":0.0017,"dx":0.0017,"nx":28,"ny":28,"refTime":"2025-11-22T09:00:00:Z","depth":0,"parameterNumber":3,"parameterNumberName":"V-component_of_WINDS"},"data":[0,0,0,0,0,0,0,0,0,0,0,0,0,0,0,0,0,0,0,0,0,0,0,0,0,0,0,0,0,0,0,0,0,0,0,0,0,0,0,0,0,0,0,0,0,0,0,0,0,0,0,0,0,0,0,0,0,0,1.5625,1.5626,0,1.5675,1.5676,1.5676,1.5676,1.5676,1.5675,1.5674,1.5724,1.5726,1.5728,0,0,0,0,0,0,0,0,0,0,0,0,0,1.5528,1.5529,1.5625,1.5626,1.5627,1.5675,1.5676,1.5677,1.5676,1.5676,1.5675,1.5674,1.5723,1.5725,1.5728,0,0,0,0,0,0,0,0,0,0,0,0,0,1.5573,1.553,1.5625,1.5632,1.5633,1.5675,1.5676,1.5677,1.5677,1.5676,1.5675,1.5674,1.5722,1.5725,1.5728,1.5765,0,0,1.5737,1.5738,0,0,0,0,0,0,0,0,1.557,1.5577,1.5631,1.5632,1.5633,1.5669,1.566,1.5706,1.5677,1.566,1.5674,1.5673,1.5706,1.571,1.5722,1.5768,1.577,1.5737,1.5739,1.574,1.5741,0,0,0,0,0,0,0,1.5567,1.5574,1.5645,1.5631,1.5633,1.5632,1.5638,1.5668,1.5688,1.5661,1.5662,1.5668,1.5707,1.5719,1.5723,1.5771,1.5737,1.574,1.5741,1.5743,1.5849,1.585,0,0,0,0,0,0,1.5563,1.5572,1.5643,1.5647,1.5599,1.5635,1.5641,1.5658,1.5688,1.5691,1.5668,1.5667,1.5715,1.572,1.5725,1.577,1.574,1.5743,1.5744,1.5848,1.5849,1.5851,0,0,0,0,0,0,1.5561,1.5569,1.5641,1.5609,1.5618,1.5638,1.5657,1.566,1.5672,1.5693,1.5696,1.5678,1.5714,1.5721,1.5755,1.5772,1.5744,1.5747,1.5847,1.5848,1.585,1.5862,0,0,0,0,0,0,1.5558,1.5569,1.5583,1.561,1.562,1.5672,1.5658,1.5661,1.5677,1.5676,1.5702,1.5706,1.5714,1.5751,1.5758,1.5775,1.5749,1.5845,1.5847,1.5849,1.586,1.5864,1.5867,0,0,0,0,0,1.5555,1.5584,1.5584,1.5593,1.5639,1.5673,1.5679,1.5688,1.5679,1.5693,1.5707,1.5705,1.5769,1.5755,1.5763,1.5781,1.5844,1.5847,1.5849,1.5858,1.5863,1.5867,0,0,0,0,0,0,1.5559,1.5588,1.5588,1.5628,1.5648,1.5673,1.5692,1.5692,1.5715,1.5714,1.5723,1.5729,1.5764,1.5776,1.5759,1.5818,1.5805,1.581,1.581,1.5814,1.5817,1.5814,1.5751,0,0,0,0,0,1.5565,1.5591,1.5614,1.5647,1.5657,1.5673,1.5688,1.5693,1.5714,1.5722,1.5738,1.5758,1.5783,1.5799,1.5823,1.5861,1.5867,1.5878,1.5881,1.5884,1.5888,1.5909,1.5914,1.5859,1.5859,1.5859,0,0,1.5577,1.5596,1.5611,1.5648,1.5664,1.569,1.568,1.5707,1.5726,1.5726,1.5761,1.5773,1.5796,1.5832,1.5849,1.5843,1.5904,1.5887,1.5889,1.5891,1.5912,1.5917,1.5921,1.586,1.586,1.586,0,0,1.5612,1.5629,1.5658,1.5675,1.57,1.571,1.5717,1.5742,1.575,1.5784,1.5785,1.5807,1.5849,1.5866,1.5879,1.592,1.5919,1.5927,1.5945,1.5965,1.597,1.5974,1.5988,1.5993,1.5931,1.5931,1.5931,0,1.5624,1.5663,1.5673,1.5701,1.5716,1.5718,1.5747,1.5762,1.5794,1.5804,1.5797,1.585,1.5866,1.5906,1.5916,1.5927,1.5935,1.5925,1.5969,1.5973,1.5976,1.599,1.5996,1.5932,1.5932,1.5931,1.5931,0,1.5676,1.5703,1.5724,1.5754,1.5772,1.5801,1.5814,1.5831,1.5834,1.5845,1.5879,1.5898,1.5926,1.5935,1.5939,1.5976,1.5972,1.5967,1.5954,1.5982,1.5995,1.6001,1.5933,1.5933,1.5932,1.5932,0,0,1.5716,1.5752,1.5759,1.5773,1.58,1.5821,1.5849,1.5877,1.5891,1.5912,1.5936,1.5971,1.5966,1.5982,1.5987,1.6005,1.6036,1.5997,1.5998,1.6004,1.6078,1.6082,1.6088,1.6035,1.6036,1.6037,1.6076,0,1.5755,1.5805,1.5814,1.5858,1.5883,1.5885,1.5909,1.5928,1.5938,1.596,1.5972,1.5997,1.5989,1.5998,1.6016,1.6028,1.6051,1.6025,1.6056,1.6057,1.6051,1.6095,1.61,1.6136,1.6081,1.6082,1.6083,0,1.5806,1.5829,1.5876,1.59,1.5911,1.5932,1.5958,1.5979,1.6001,1.6007,1.6024,1.6027,1.6055,1.6041,1.608,1.6062,1.6075,1.6083,1.6085,1.6088,1.6072,1.61,1.6147,1.6153,1.6091,1.609,1.609,0,1.5831,1.5874,1.5907,1.5919,1.5947,1.5963,1.5975,1.5996,1.6011,1.6033,1.6044,1.6068,1.6082,1.6101,1.611,1.6098,1.6148,1.6134,1.6154,1.6154,1.6165,1.6164,1.6215,1.6172,1.6172,1.6172,1.6172,0,1.5873,1.5901,1.5919,1.5939,1.5971,1.598,1.6011,1.6023,1.6041,1.6064,1.6066,1.6087,1.6097,1.612,1.6127,1.6158,1.6164,1.6169,1.6171,1.6169,1.6169,1.6178,1.6176,1.6174,1.6173,1.6173,1.6173,0,1.5906,1.5919,1.5956,1.598,1.5986,1.6009,1.6029,1.6048,1.6059,1.6087,1.6094,1.611,1.6136,1.6147,1.6179,1.6184,1.6219,1.6219,1.6212,1.6213,1.6232,1.623,1.6291,1.63,1.6251,1.6252,1.6252,0,1.5932,1.5955,1.5981,1.5997,1.601,1.6034,1.6051,1.606,1.6077,1.6103,1.6119,1.6145,1.6167,1.6209,1.6222,1.6247,1.6247,1.6267,1.6251,1.6248,1.6247,1.6246,1.6248,1.627,1.627,1.6271,1.6271,0,1.5978,1.5983,1.6006,1.6032,1.6052,1.6072,1.6092,1.6105,1.6117,1.6136,1.6163,1.618,1.6212,1.6238,1.6263,1.6275,1.6275,1.6276,1.6282,1.6281,1.6276,1.6279,1.6221,1.6275,1.6274,1.6274,1.6274,1.6274,1.6008,1.6028,1.605,1.6076,1.6092,1.6111,1.613,1.6143,1.6166,1.6194,1.6198,1.6227,1.6247,1.628,1.6293,1.6316,1.631,1.6319,1.6321,1.6323,1.6324,1.6272,1.632,1.632,1.632,1.632,1.632,0,1.6054,1.6068,1.6092,1.612,1.614,1.6139,1.6161,1.6178,1.6203,1.6222,1.6244,1.6274,1.6299,1.6315,1.634,1.6355,1.6355,1.6361,1.636,1.6363,1.6327,1.632,1.636,1.636,1.636,1.636,1.636,1.636,1.608,1.6113,1.612,1.6161,1.6175,1.6204,1.6216,1.6233,1.6248,1.6283,1.6304,1.6314,1.6332,1.6358,1.638,1.6384,1.6393,1.64,1.6403,1.637,1.6365,1.6361,1.6355,1.6401,1.6401,1.6437,1.6437,1.6437]}]]